Digimon Card Ultimate Cup - Milano Comics and Games

Digimon Card Ultimate Cup - Milano Comics and Games

Ultimate Cup

24/08/2022

La Digimon Card Ultimate Cup è un evento speciale che offre nuovi esclusivi premi!

Tipo di Eventi:

DIGIMON ULTIMATE CUP (TORNEI DI LIVELLO 4)

Il Digimon Card Ultimate Cup è un torneo aperto a tutti i giocatori di Digimon Card Game.

 

Formato:

Costruito

Luogo:

Milano Comics and Games
c/o Malpensa Fiere
Via XI Settembre 16
Busto Arsizio (VA)

 

 

 

Per partecipare a questo evento, ogni partecipante dovrà essere dotato di:

- un mazzo Digimon Card Game legale per i tornei;
- uno smartphone connesso a internet con l'app digimoncard.it installata (sarà messa a disposizione una connessione Wi-Fi presso il luogo del torneo);

 

Sarà possibile iscriversi all'evento entro Sabato 17 Settembre.
 

Informazioni e orari:

Domenica 18 Settembre 2022

Iscrizioni: Iscrizione Online Obbligatoria con Pagamento Immediato

  • Domenica 18 Settembre ore 10:30 >>> Player Briefing e Inizio Torneo.

 

Formula Torneo:

Il torneo si svolge in un numero di Round di Svizzera in base numero di partecipanti. 

Lista del Mazzo Obbligatoria

Sarà necessario essere in possesso del Play ID e usare il Deckbuilder dall'Area Player del sito per creare e trasmettere la propria lista prima dell'inizio del torneo.

Nel caso in cui non si possegga un Play ID, sarà possibile crearlo cliccando QUI.

Modalità e Durata dei Turni di Svizzera

Ogni turno di svizzera dura 45 minuti di tempo con Incontri al Meglio delle tre Partite.

Al termine dei turni di svizzera NON verrà svolto alcun Playoff
 

Il torneo adotterà inoltre le seguenti regole:

- Mulligan;
- Side Deck di un massimo di 5 carte

 

Costo di Iscrizione e Premio di Partecipazione:

 - Costo Iscrizione Base: 35,00 euro (Include 1x BT3-002 DemiVeemon Alt Art Promo Card, 2x Event Pack 2).

I giocatori VIP che si iscrivono ottengono 1 Event Pack 2 addizionale.

N.B. I giocatori che si iscrivono senza partecipare all'evento otterranno esclusivamente il premio di partecipazione incluso con il costo di iscrizione.

I partecipanti all'evento ottengono anche l'accesso gratuito alla fiera Milano Comics and Games: un nostro incaricato consegnerà un pass gratuito a ogni iscritto all'evento.

 

Premi

Top 64 *

1x BT3-021 Veemon Alt-Art Promo Card

* Solo con numero di partecipanti pari o maggiore a 65

Top 32

- 1x EX1-014 ExVeemon Alt-Art Promo Card

Top 16

- 1x ST9-05 Paildramon Alt-Art Promo Card (Legale dall'uscita del mazzo ST-9 Ultimate Ancient Dragon)

Top 4

- 1x BT8-032 Imperialdramon Fighter Mode Alt-Art Promo Card (Legale dall'uscita del set BT-08 New Awakening)

2° Classificato

1x BT1-084 Omnimon 2022 Alt-Art Promo Card      

1° Classificato

- 1x BT1-084 Omnimon 2022 Alt-Art Promo Card, 1x BT8-112 Imperialdramon Paladin Mode Alt-Art Promo Card, 1 Box di Buste

 

Event Pack 2

Contenuto

BT3-002 DemiVeemon Alt-Art Promo Card

BT3-021 Veemon Alt-Art Promo Card

EX1-014 ExVeemon Alt-Art Promo Card

ST9-05 Paildramon Alt-Art Promo Card

BT8-032 Imperialdramon Fighter Mode Alt-Art Promo Card

BT1-084 Omnimon 2022 Alt-Art Promo Card
 

BT8-112 Imperialdramon Paladin Mode Alt-Art Promo Card

Box BT-09 X-RECORD
 

 

 

 



Elenco Organizzatori

Data Formato Sede Torneo Indirizzo Regione
18/09/2022 10:30 Constructed Milano Comics And Games C/o Malpensa Fiere 21052 Via Xi Settembre 16 (mi) Lombardia Contatta Risultati

Giocatori Pre-Registrati

N# Data Pre-reg. Play ID Giocatore
1 31/08/2022 14:08:41 2500006721 Paolo Wu
2 31/08/2022 14:09:54 6100007027 Massimo Hu
3 31/08/2022 23:46:19 6400006266 Eduard Abramov
4 01/09/2022 11:05:23 8700007762 Lorenzo Ceirano
5 01/09/2022 13:14:19 1900004720 Daniele Celentano
6 02/09/2022 15:25:07 5000002773 Gabriele Caforio
7 02/09/2022 20:02:19 7400006919 Domenico Cordi
8 04/09/2022 21:30:16 3800007097 ***********
9 05/09/2022 05:50:29 4500007098 ***********
10 05/09/2022 08:43:28 6100006899 Iacopo Profeti
11 05/09/2022 23:33:58 7600007091 Mirko Rossi
12 06/09/2022 22:30:47 9400007974 ***********
13 08/09/2022 08:57:51 8100005241 Andrea Sapia
14 08/09/2022 15:10:07 4200006732 ***********
15 08/09/2022 18:49:05 0100007847 ***********
16 08/09/2022 21:08:08 2400008288 Francisco Jose Diaz Gimenez
17 09/09/2022 13:07:57 3100006722 ***********
18 09/09/2022 16:38:01 7800005176 Giulio Righi
19 09/09/2022 22:33:10 2200008316 Wolff Florian
20 09/09/2022 22:34:41 3000008317 Lambert Maxime
21 10/09/2022 08:51:46 7000004195 Lorenzo Soldati
22 11/09/2022 16:26:49 7000005194 Gabriele Gironi
23 11/09/2022 19:16:49 5900004900 Mattia Rossi
24 11/09/2022 21:41:50 0300005629 Simone Giardinelli  Campione DIGIMON CARD GAME TAMER BATTLE PREMIERE
25 12/09/2022 12:00:22 3300008326 ***********
26 12/09/2022 12:55:56 0200008332 ***********
27 12/09/2022 13:16:03 7600007174 Mario Ambrosio
28 12/09/2022 13:59:26 4300005531 Ivan Castello
29 12/09/2022 14:26:48 5900006540 ***********
30 12/09/2022 18:32:26 8500005690 Fabio Rosella
31 13/09/2022 00:28:39 1200005703 Luca Valdevies
32 13/09/2022 10:38:02 6100004093 Alessandro Sapone
33 13/09/2022 13:23:17 6500005827 Mohamed Aboud ** VIP **
34 13/09/2022 13:26:10 6000006046 Nadir Mouti
35 13/09/2022 20:55:02 6800004204 Reda Yassifi
36 13/09/2022 23:07:23 3900006630 Davide Ponzo
37 14/09/2022 10:28:03 4100008327 ***********
38 14/09/2022 10:52:15 0500007645 Riccardo Di Luca
39 14/09/2022 11:06:31 8700004233 Matteo Montorsi
40 14/09/2022 11:33:31 4400008336 Vanessa Costanzo
41 14/09/2022 15:51:11 0100007342 Riccardo Dassori
42 14/09/2022 16:33:29 8200004132 Mario Morelli Vincitore EVOLUTION CUP - NOVEMBRE 2021Vincitore Digimon Fest Marzo 2022Vincitore The Tournament
43 14/09/2022 18:50:39 4300005678 John Martin Ubaldo
44 15/09/2022 01:12:18 9800005499 Silvano Lionello
45 15/09/2022 01:15:56 9000005141 Stefano Lipari
46 15/09/2022 11:24:32 7600005158 Claudio Giacomini
47 15/09/2022 13:08:22 7000003994 Gabriele Casaro
48 15/09/2022 13:49:12 7800006157 Antonio Savino
49 15/09/2022 13:56:16 7200004003 Davide Casaro
50 15/09/2022 14:38:00 9400005040 Francesco Lee Bronte
51 15/09/2022 15:10:26 8400006194 Edoardo Maria Masi Vincitore DIGIMON CARD GAME ONLINE ITALIAN DC-1 GRAND PRIXVincitore DIGIMON CARD GAME FEST - CEREA COMICS AND GAMES
52 15/09/2022 16:35:28 7200007798 Elena Spagnolo
53 15/09/2022 18:47:12 7400003288 Bruno Trapassi ** VIP **
54 16/09/2022 00:21:37 8700006039 Andrea Belleri
55 16/09/2022 09:28:25 0900008323 Edin Kulasic
56 16/09/2022 09:41:52 6700006183 Alessandro Leta
57 16/09/2022 10:46:15 5300004478 Mattia Lambrugo
58 16/09/2022 14:36:18 6300008347 ***********
59 16/09/2022 16:26:55 4900008143 ***********
60 16/09/2022 16:29:53 3100008142 ***********
61 16/09/2022 18:51:03 5900004102 Stefano Gagliano
62 16/09/2022 19:17:30 4100008253 ***********
63 16/09/2022 19:24:05 6700008255 ***********
64 16/09/2022 19:50:53 7400007936 Francesco Sirchia
65 16/09/2022 19:58:21 0100001128 Hayden Verdelli
66 16/09/2022 20:05:40 4500007915 ***********
67 16/09/2022 20:23:59 4800002772 Diego Garrone
68 16/09/2022 20:33:25 6400006220 ***********
69 16/09/2022 21:32:16 0700006499 ***********
70 16/09/2022 22:03:09 6300006431 Andrea Maderna
71 16/09/2022 22:38:55 5600001114 Emanuele Pugliese
72 16/09/2022 22:46:58 6600008356 ***********
73 17/09/2022 00:05:14 8900007799 Luca Boselli
74 17/09/2022 07:12:13 7200008247 Steven Soland
75 17/09/2022 08:56:46 3300000856 Gabriele Castagnasso
76 17/09/2022 08:57:16 1600000881 Marco Ghetta
77 17/09/2022 08:57:40 4600000884 Giacomo Attardi
78 17/09/2022 14:22:07 3000006465 Vincenzo Avitabile
79 17/09/2022 16:16:54 9400006379 ***********
80 17/09/2022 16:22:26 2400008040 ***********
81 17/09/2022 19:22:41 8900004499 Emanuele Mingione Campione DIGIMON CARD GAME ONLINE BIG BATTLECampione DIGIMON CARD GAME FEST PARMA
82 17/09/2022 19:23:11 8900004893 Matteo Grossi
83 17/09/2022 20:06:14 7300004186 Davide Ferrari
84 18/09/2022 09:28:14 1600006335 Luca Panini